Huvudsida
METAR-TAF:

METAR-TAF

Flygplatser :

Qazvin Airport

Qazvin, Iran

latitud: 36-15N, longitud: 050-00E, höjd: 1278 m

Aktuellt väderrapport

Denna rapport gjordes för 23 minuter sedan, klockan 08:00 UTC
Vind 4 kt från sydväst
Temperatur 20°C
Fuktighet 43%
Tryck 1021 hPa
Sikt 10 km eller mer
Få moln på en höjd av 3500 ft, Högtornande cumulus.

METAR: OIIK 230800Z 22004KT 9999 FEW035TCU 20/07 Q1021

Tid: 11:53 (08:23 UTC)


TAF: saknas

Aktuella väderrapporter och prognoser från 4000 flygplatser (METAR- och TAF-rapporter).

De tillgängliga stationerna syns som gula och röda prickar på kartan.

För musen över prickarna för att se namnen på stationerna.

Klicka sedan för att få väderrapporter och prognoser.

För att ändra kartan: Klicka på de gröna knapparna med ett svart kors på för att zooma in; den gröna knappen med ett streck på för att zooma ut; eller på de gröna pilarna för angränsande kartor.


METAR-TAF: